Year,Month,Day,Hour,Minute,Value (Times are PST for temperature in C)
2018,04,23,00,00,5.60
2018,04,23,00,01,5.60
2018,04,23,00,02,5.70
2018,04,23,00,03,5.70
2018,04,23,00,04,5.70
2018,04,23,00,05,5.70
2018,04,23,00,06,5.70
2018,04,23,00,07,5.70
2018,04,23,00,08,5.70
2018,04,23,00,09,5.70
2018,04,23,00,10,5.70
2018,04,23,00,11,5.70
2018,04,23,00,12,5.70
2018,04,23,00,13,5.80
2018,04,23,00,14,5.80
2018,04,23,00,15,5.80
2018,04,23,00,16,5.80
2018,04,23,00,17,5.80
2018,04,23,00,18,5.90
2018,04,23,00,19,5.90
2018,04,23,00,20,5.90
2018,04,23,00,21,5.90
2018,04,23,00,22,5.90
2018,04,23,00,23,5.90
2018,04,23,00,24,5.80
2018,04,23,00,25,5.80
2018,04,23,00,26,5.80
2018,04,23,00,27,5.80
2018,04,23,00,28,5.80
2018,04,23,00,29,5.70
2018,04,23,00,30,5.70
2018,04,23,00,31,5.70
2018,04,23,00,32,5.70
2018,04,23,00,33,5.70
2018,04,23,00,34,5.70
2018,04,23,00,35,5.60
2018,04,23,00,36,5.60
2018,04,23,00,37,5.60
2018,04,23,00,38,5.60
2018,04,23,00,39,5.50
2018,04,23,00,40,5.50
2018,04,23,00,41,5.50
2018,04,23,00,42,5.50
2018,04,23,00,43,5.50
2018,04,23,00,44,5.50
2018,04,23,00,45,5.50
2018,04,23,00,46,5.50
2018,04,23,00,47,5.50
2018,04,23,00,48,5.60
2018,04,23,00,49,5.60
2018,04,23,00,50,5.60
2018,04,23,00,51,5.60
2018,04,23,00,52,5.60
2018,04,23,00,53,5.60
2018,04,23,00,54,5.60
2018,04,23,00,55,5.60
2018,04,23,00,56,5.50
2018,04,23,00,57,5.40
2018,04,23,00,58,5.40
2018,04,23,00,59,5.30
2018,04,23,01,00,5.30
2018,04,23,01,01,5.20
2018,04,23,01,02,5.20
2018,04,23,01,03,5.10
2018,04,23,01,04,5.10
2018,04,23,01,05,5.10
2018,04,23,01,06,5.10
2018,04,23,01,07,5.10
2018,04,23,01,08,5.10
2018,04,23,01,09,5.10
2018,04,23,01,10,5.10
2018,04,23,01,11,5.20
2018,04,23,01,12,5.20
2018,04,23,01,13,5.20
2018,04,23,01,14,5.20
2018,04,23,01,15,5.20
2018,04,23,01,16,5.20
2018,04,23,01,17,5.20
2018,04,23,01,18,5.20
2018,04,23,01,19,5.20
2018,04,23,01,20,5.20
2018,04,23,01,21,5.30
2018,04,23,01,22,5.30
2018,04,23,01,23,5.30
2018,04,23,01,24,5.30
2018,04,23,01,25,5.30
2018,04,23,01,26,5.30
2018,04,23,01,27,5.20
2018,04,23,01,28,5.20
2018,04,23,01,29,5.20
2018,04,23,01,30,5.10
2018,04,23,01,31,5.10
2018,04,23,01,32,5.10
2018,04,23,01,33,5.00
2018,04,23,01,34,5.00
2018,04,23,01,35,5.00
2018,04,23,01,36,5.00
2018,04,23,01,37,5.00
2018,04,23,01,38,4.90
2018,04,23,01,39,4.90
2018,04,23,01,40,4.90
2018,04,23,01,41,4.90
2018,04,23,01,42,4.90
2018,04,23,01,43,4.80
2018,04,23,01,44,4.80
2018,04,23,01,45,4.80
2018,04,23,01,46,4.70
2018,04,23,01,47,4.70
2018,04,23,01,48,4.70
2018,04,23,01,49,4.70
2018,04,23,01,50,4.70
2018,04,23,01,51,4.70
2018,04,23,01,52,4.70
2018,04,23,01,53,4.70
2018,04,23,01,54,4.70
2018,04,23,01,55,4.70
2018,04,23,01,56,4.70
2018,04,23,01,57,4.70
2018,04,23,01,58,4.80
2018,04,23,01,59,4.80
2018,04,23,02,00,4.80
2018,04,23,02,01,4.80
2018,04,23,02,02,4.80
2018,04,23,02,03,4.80
2018,04,23,02,04,4.80
2018,04,23,02,05,4.80
2018,04,23,02,06,4.80
2018,04,23,02,07,4.90
2018,04,23,02,08,4.90
2018,04,23,02,09,4.90
2018,04,23,02,10,5.00
2018,04,23,02,11,5.00
2018,04,23,02,12,5.10
2018,04,23,02,13,5.10
2018,04,23,02,14,5.20
2018,04,23,02,15,5.20
2018,04,23,02,16,5.20
2018,04,23,02,17,5.20
2018,04,23,02,18,5.30
2018,04,23,02,19,5.30
2018,04,23,02,20,5.30
2018,04,23,02,21,5.40
2018,04,23,02,22,5.40
2018,04,23,02,23,5.40
2018,04,23,02,24,5.40
2018,04,23,02,25,5.50
2018,04,23,02,26,5.50
2018,04,23,02,27,5.50
2018,04,23,02,28,5.40
2018,04,23,02,29,5.40
2018,04,23,02,30,5.30
2018,04,23,02,31,5.30
2018,04,23,02,32,5.20
2018,04,23,02,33,5.20
2018,04,23,02,34,5.10
2018,04,23,02,35,5.00
2018,04,23,02,36,4.90
2018,04,23,02,37,4.80
2018,04,23,02,38,4.80
2018,04,23,02,39,4.70
2018,04,23,02,40,4.70
2018,04,23,02,41,4.60
2018,04,23,02,42,4.60
2018,04,23,02,43,4.50
2018,04,23,02,44,4.50
2018,04,23,02,45,4.50
2018,04,23,02,46,4.50
2018,04,23,02,47,4.50
2018,04,23,02,48,4.50
2018,04,23,02,49,4.50
2018,04,23,02,50,4.50
2018,04,23,02,51,4.50
2018,04,23,02,52,4.50
2018,04,23,02,53,4.60
2018,04,23,02,54,4.60
2018,04,23,02,55,4.70
2018,04,23,02,56,4.70
2018,04,23,02,57,4.70
2018,04,23,02,58,4.70
2018,04,23,02,59,4.70
2018,04,23,03,00,4.80
2018,04,23,03,01,4.80
2018,04,23,03,02,4.90
2018,04,23,03,03,4.90
2018,04,23,03,04,5.00
2018,04,23,03,05,5.00
2018,04,23,03,06,5.10
2018,04,23,03,07,5.10
2018,04,23,03,08,5.20
2018,04,23,03,09,5.20
2018,04,23,03,10,5.20
2018,04,23,03,11,5.20
2018,04,23,03,12,5.20
2018,04,23,03,13,5.20
2018,04,23,03,14,5.20
2018,04,23,03,15,5.20
2018,04,23,03,16,5.10
2018,04,23,03,17,5.10
2018,04,23,03,18,5.10
2018,04,23,03,19,5.10
2018,04,23,03,20,5.10
2018,04,23,03,21,5.00
2018,04,23,03,22,5.00
2018,04,23,03,23,5.00
2018,04,23,03,24,5.00
2018,04,23,03,25,5.00
2018,04,23,03,26,5.00
2018,04,23,03,27,5.00
2018,04,23,03,28,5.00
2018,04,23,03,29,5.00
2018,04,23,03,30,5.00
2018,04,23,03,31,5.00
2018,04,23,03,32,5.00
2018,04,23,03,33,5.00
2018,04,23,03,34,5.00
2018,04,23,03,35,5.00
2018,04,23,03,36,5.00
2018,04,23,03,37,5.00
2018,04,23,03,38,5.00
2018,04,23,03,39,5.00
2018,04,23,03,40,5.10
2018,04,23,03,41,5.10
2018,04,23,03,42,5.10
2018,04,23,03,43,5.10
2018,04,23,03,44,5.10
2018,04,23,03,45,5.20
2018,04,23,03,46,5.20
2018,04,23,03,47,5.20
2018,04,23,03,48,5.20
2018,04,23,03,49,5.20
2018,04,23,03,50,5.20
2018,04,23,03,51,5.20
2018,04,23,03,52,5.20
2018,04,23,03,53,5.30
2018,04,23,03,54,5.30
2018,04,23,03,55,5.30
2018,04,23,03,56,5.30
2018,04,23,03,57,5.30
2018,04,23,03,58,5.30
2018,04,23,03,59,5.30
2018,04,23,04,00,5.30
2018,04,23,04,01,5.30
2018,04,23,04,02,5.20
2018,04,23,04,03,5.20
2018,04,23,04,04,5.20
2018,04,23,04,05,5.20
2018,04,23,04,06,5.20
2018,04,23,04,07,5.20
2018,04,23,04,08,5.20
2018,04,23,04,09,5.20
2018,04,23,04,10,5.20
2018,04,23,04,11,5.20
2018,04,23,04,12,5.20
2018,04,23,04,13,5.20
2018,04,23,04,14,5.20
2018,04,23,04,15,5.20
2018,04,23,04,16,5.20
2018,04,23,04,17,5.20
2018,04,23,04,18,5.20
2018,04,23,04,19,5.20
2018,04,23,04,20,5.20
2018,04,23,04,21,5.20
2018,04,23,04,22,5.20
2018,04,23,04,23,5.10
2018,04,23,04,24,5.10
2018,04,23,04,25,5.10
2018,04,23,04,26,5.10
2018,04,23,04,27,5.10
2018,04,23,04,28,5.00
2018,04,23,04,29,5.00
2018,04,23,04,30,4.90
2018,04,23,04,31,4.90
2018,04,23,04,32,4.90
2018,04,23,04,33,4.90
2018,04,23,04,34,4.90
2018,04,23,04,35,5.00
2018,04,23,04,36,5.00
2018,04,23,04,37,5.10
2018,04,23,04,38,5.10
2018,04,23,04,39,5.10
2018,04,23,04,40,5.10
2018,04,23,04,41,5.10
2018,04,23,04,42,5.10
2018,04,23,04,43,5.10
2018,04,23,04,44,5.10
2018,04,23,04,45,5.10
2018,04,23,04,46,5.10
2018,04,23,04,47,5.10
2018,04,23,04,48,5.10
2018,04,23,04,49,5.10
2018,04,23,04,50,5.00
2018,04,23,04,51,5.00
2018,04,23,04,52,5.00
2018,04,23,04,53,5.00
2018,04,23,04,54,4.90
2018,04,23,04,55,4.90
2018,04,23,04,56,4.90
2018,04,23,04,57,4.90
2018,04,23,04,58,4.90
2018,04,23,04,59,4.90
2018,04,23,05,00,4.90
2018,04,23,05,01,4.80
2018,04,23,05,02,4.80
2018,04,23,05,03,4.80
2018,04,23,05,04,4.70
2018,04,23,05,05,4.70
2018,04,23,05,06,4.70
2018,04,23,05,07,4.60
2018,04,23,05,08,4.60
2018,04,23,05,09,4.60
2018,04,23,05,10,4.60
2018,04,23,05,11,4.60
2018,04,23,05,12,4.60
2018,04,23,05,13,4.60
2018,04,23,05,14,4.60
2018,04,23,05,15,4.60
2018,04,23,05,16,4.60
2018,04,23,05,17,4.60
2018,04,23,05,18,4.60
2018,04,23,05,19,4.60
2018,04,23,05,20,4.60
2018,04,23,05,21,4.60
2018,04,23,05,22,4.60
2018,04,23,05,23,4.70
2018,04,23,05,24,4.70
2018,04,23,05,25,4.80
2018,04,23,05,26,4.80
2018,04,23,05,27,4.80
2018,04,23,05,28,4.90
2018,04,23,05,29,4.90
2018,04,23,05,30,4.90
2018,04,23,05,31,5.00
2018,04,23,05,32,5.00
2018,04,23,05,33,5.10
2018,04,23,05,34,5.10
2018,04,23,05,35,5.10
2018,04,23,05,36,5.20
2018,04,23,05,37,5.20
2018,04,23,05,38,5.20
2018,04,23,05,39,5.20
2018,04,23,05,40,5.20
2018,04,23,05,41,5.30
2018,04,23,05,42,5.30
2018,04,23,05,43,5.30
2018,04,23,05,44,5.30
2018,04,23,05,45,5.30
2018,04,23,05,46,5.30
2018,04,23,05,47,5.30
2018,04,23,05,48,5.40
2018,04,23,05,49,5.40
2018,04,23,05,50,5.40
2018,04,23,05,51,5.40
2018,04,23,05,52,5.40
2018,04,23,05,53,5.40
2018,04,23,05,54,5.40
2018,04,23,05,55,5.40
2018,04,23,05,56,5.40
2018,04,23,05,57,5.40
2018,04,23,05,58,5.40
2018,04,23,05,59,5.40
2018,04,23,06,00,5.40
2018,04,23,06,01,5.40
2018,04,23,06,02,5.40
2018,04,23,06,03,5.40
2018,04,23,06,04,5.40
2018,04,23,06,05,5.30
2018,04,23,06,06,5.30
2018,04,23,06,07,5.30
2018,04,23,06,08,5.30
2018,04,23,06,09,5.30
2018,04,23,06,10,5.30
2018,04,23,06,11,5.20
2018,04,23,06,12,5.20
2018,04,23,06,13,5.20
2018,04,23,06,14,5.20
2018,04,23,06,15,5.20
2018,04,23,06,16,5.10
2018,04,23,06,17,5.10
2018,04,23,06,18,5.10
2018,04,23,06,19,5.10
2018,04,23,06,20,5.10
2018,04,23,06,21,5.10
2018,04,23,06,22,5.10
2018,04,23,06,23,5.00
2018,04,23,06,24,5.00
2018,04,23,06,25,5.00
2018,04,23,06,26,5.00
2018,04,23,06,27,5.00
2018,04,23,06,28,5.00
2018,04,23,06,29,5.00
2018,04,23,06,30,4.90
2018,04,23,06,31,4.90
2018,04,23,06,32,4.90
2018,04,23,06,33,4.90
2018,04,23,06,34,4.90
2018,04,23,06,35,5.00
2018,04,23,06,36,5.00
2018,04,23,06,37,5.10
2018,04,23,06,38,5.10
2018,04,23,06,39,5.10
2018,04,23,06,40,5.20
2018,04,23,06,41,5.20
2018,04,23,06,42,5.30
2018,04,23,06,43,5.30
2018,04,23,06,44,5.30
2018,04,23,06,45,5.40
2018,04,23,06,46,5.40
2018,04,23,06,47,5.50
2018,04,23,06,48,5.50
2018,04,23,06,49,5.60
2018,04,23,06,50,5.60
2018,04,23,06,51,5.60
2018,04,23,06,52,5.70
2018,04,23,06,53,5.70
2018,04,23,06,54,5.80
2018,04,23,06,55,5.80
2018,04,23,06,56,5.80
2018,04,23,06,57,5.80
2018,04,23,06,58,5.90
2018,04,23,06,59,5.90
2018,04,23,07,00,6.00
2018,04,23,07,01,6.00
2018,04,23,07,02,6.10
2018,04,23,07,03,6.10
2018,04,23,07,04,6.20
2018,04,23,07,05,6.30
2018,04,23,07,06,6.50
2018,04,23,07,07,6.60
2018,04,23,07,08,6.70
2018,04,23,07,09,6.80
2018,04,23,07,10,6.90
2018,04,23,07,11,7.00
2018,04,23,07,12,7.10
2018,04,23,07,13,7.10
2018,04,23,07,14,7.20
2018,04,23,07,15,7.20
2018,04,23,07,16,7.30
2018,04,23,07,17,7.30
2018,04,23,07,18,7.40
2018,04,23,07,19,7.50
2018,04,23,07,20,7.50
2018,04,23,07,21,7.60
2018,04,23,07,22,7.60
2018,04,23,07,23,7.70
2018,04,23,07,24,7.70
2018,04,23,07,25,7.70
2018,04,23,07,26,7.70
2018,04,23,07,27,7.70
2018,04,23,07,28,7.80
2018,04,23,07,29,7.80
2018,04,23,07,30,7.80
2018,04,23,07,31,7.90
2018,04,23,07,32,7.90
2018,04,23,07,33,7.90
2018,04,23,07,34,8.00
2018,04,23,07,35,8.00
2018,04,23,07,36,8.10
2018,04,23,07,37,8.10
2018,04,23,07,38,8.20
2018,04,23,07,39,8.20
2018,04,23,07,40,8.20
2018,04,23,07,41,8.30
2018,04,23,07,42,8.30
2018,04,23,07,43,8.40
2018,04,23,07,44,8.40
2018,04,23,07,45,8.50
2018,04,23,07,46,8.50
2018,04,23,07,47,8.60
2018,04,23,07,48,8.70
2018,04,23,07,49,8.70
2018,04,23,07,50,8.80
2018,04,23,07,51,8.80
2018,04,23,07,52,8.80
2018,04,23,07,53,8.90
2018,04,23,07,54,8.90
2018,04,23,07,55,9.00
2018,04,23,07,56,9.10
2018,04,23,07,57,9.10
2018,04,23,07,58,9.20
2018,04,23,07,59,9.20
2018,04,23,08,00,9.30
2018,04,23,08,01,9.40
2018,04,23,08,02,9.50
2018,04,23,08,03,9.50
2018,04,23,08,04,9.60
2018,04,23,08,05,9.70
2018,04,23,08,06,9.80
2018,04,23,08,07,9.80
2018,04,23,08,08,9.90
2018,04,23,08,09,9.90
2018,04,23,08,10,9.90
2018,04,23,08,11,9.90
2018,04,23,08,12,10.00
2018,04,23,08,13,10.10
2018,04,23,08,14,10.10
2018,04,23,08,15,10.10
2018,04,23,08,16,10.20
2018,04,23,08,17,10.20
2018,04,23,08,18,10.20
2018,04,23,08,19,10.20
2018,04,23,08,20,10.20
2018,04,23,08,21,10.20
2018,04,23,08,22,10.20
2018,04,23,08,23,10.20
2018,04,23,08,24,10.30
2018,04,23,08,25,10.30
2018,04,23,08,26,10.30
2018,04,23,08,27,10.40
2018,04,23,08,28,10.40
2018,04,23,08,29,10.50
2018,04,23,08,30,10.60
2018,04,23,08,31,10.60
2018,04,23,08,32,10.60
2018,04,23,08,33,10.50
2018,04,23,08,34,10.50
2018,04,23,08,35,10.50
2018,04,23,08,36,10.50
2018,04,23,08,37,10.50
2018,04,23,08,38,10.50
2018,04,23,08,39,10.50
2018,04,23,08,40,10.50
2018,04,23,08,41,10.50
2018,04,23,08,42,10.50
2018,04,23,08,43,10.60
2018,04,23,08,44,10.60
2018,04,23,08,45,10.70
2018,04,23,08,46,10.70
2018,04,23,08,47,10.70
2018,04,23,08,48,10.80
2018,04,23,08,49,10.80
2018,04,23,08,50,10.80
2018,04,23,08,51,10.80
2018,04,23,08,52,10.80
2018,04,23,08,53,10.80
2018,04,23,08,54,10.70
2018,04,23,08,55,10.70
2018,04,23,08,56,10.80
2018,04,23,08,57,10.80
2018,04,23,08,58,10.90
2018,04,23,08,59,10.90
2018,04,23,09,00,11.00
2018,04,23,09,01,11.10
2018,04,23,09,02,11.10
2018,04,23,09,03,11.10
2018,04,23,09,04,11.20
2018,04,23,09,05,11.20
2018,04,23,09,06,11.20
2018,04,23,09,07,11.20
2018,04,23,09,08,11.20
2018,04,23,09,09,11.20
2018,04,23,09,10,11.10
2018,04,23,09,11,11.10
2018,04,23,09,12,11.20
2018,04,23,09,13,11.20
2018,04,23,09,14,11.20
2018,04,23,09,15,11.20
2018,04,23,09,16,11.20
2018,04,23,09,17,11.30
2018,04,23,09,18,11.30
2018,04,23,09,19,11.20
2018,04,23,09,20,11.20
2018,04,23,09,21,11.20
2018,04,23,09,22,11.30
2018,04,23,09,23,11.30
2018,04,23,09,24,11.40
2018,04,23,09,25,11.40
2018,04,23,09,26,11.50
2018,04,23,09,27,11.60
2018,04,23,09,28,11.60
2018,04,23,09,29,11.70
2018,04,23,09,30,11.70
2018,04,23,09,31,11.70
2018,04,23,09,32,11.70
2018,04,23,09,33,11.70
2018,04,23,09,34,11.70
2018,04,23,09,35,11.80
2018,04,23,09,36,11.80
2018,04,23,09,37,11.90
2018,04,23,09,38,11.90
2018,04,23,09,39,12.00
2018,04,23,09,40,12.10
2018,04,23,09,41,12.10
2018,04,23,09,42,12.10
2018,04,23,09,43,12.00
2018,04,23,09,44,12.00
2018,04,23,09,45,12.00
2018,04,23,09,46,12.00
2018,04,23,09,47,12.10
2018,04,23,09,48,12.10
2018,04,23,09,49,12.20
2018,04,23,09,50,12.20
2018,04,23,09,51,12.20
2018,04,23,09,52,12.30
2018,04,23,09,53,12.30
2018,04,23,09,54,12.20
2018,04,23,09,55,12.20
2018,04,23,09,56,12.20
2018,04,23,09,57,12.20
2018,04,23,09,58,12.20
2018,04,23,09,59,12.20
2018,04,23,10,00,12.20
2018,04,23,10,01,12.20
2018,04,23,10,02,12.30
2018,04,23,10,03,12.20
2018,04,23,10,04,12.20
2018,04,23,10,05,12.20
2018,04,23,10,06,12.20
2018,04,23,10,07,12.20
2018,04,23,10,08,12.30
2018,04,23,10,09,12.30
2018,04,23,10,10,12.30
2018,04,23,10,11,12.20
2018,04,23,10,12,12.30
2018,04,23,10,13,12.30
2018,04,23,10,14,12.20
2018,04,23,10,15,12.20
2018,04,23,10,16,12.10
2018,04,23,10,17,12.10
2018,04,23,10,18,12.20
2018,04,23,10,19,12.30
2018,04,23,10,20,12.30
2018,04,23,10,21,12.40
2018,04,23,10,22,12.40
2018,04,23,10,23,12.50
2018,04,23,10,24,12.50
2018,04,23,10,25,12.50
2018,04,23,10,26,12.50
2018,04,23,10,27,12.60
2018,04,23,10,28,12.50
2018,04,23,10,29,12.50
2018,04,23,10,30,12.40
2018,04,23,10,31,12.40
2018,04,23,10,32,12.40
2018,04,23,10,33,12.50
2018,04,23,10,34,12.60
2018,04,23,10,35,12.60
2018,04,23,10,36,12.70
2018,04,23,10,37,12.70
2018,04,23,10,38,12.70
2018,04,23,10,39,12.60
2018,04,23,10,40,12.50
2018,04,23,10,41,12.50
2018,04,23,10,42,12.50
2018,04,23,10,43,12.60
2018,04,23,10,44,12.60
2018,04,23,10,45,12.60
2018,04,23,10,46,12.60
2018,04,23,10,47,12.60
2018,04,23,10,48,12.60
2018,04,23,10,49,12.70
2018,04,23,10,50,12.70
2018,04,23,10,51,12.80
2018,04,23,10,52,12.80
2018,04,23,10,53,12.80
2018,04,23,10,54,12.80
2018,04,23,10,55,12.80
2018,04,23,10,56,12.70
2018,04,23,10,57,12.70
2018,04,23,10,58,12.70
2018,04,23,10,59,12.60
2018,04,23,11,00,12.60
2018,04,23,11,01,12.70
2018,04,23,11,02,12.70
2018,04,23,11,03,12.80
2018,04,23,11,04,12.90
2018,04,23,11,05,12.90
2018,04,23,11,06,12.90
2018,04,23,11,07,12.90
2018,04,23,11,08,12.90
2018,04,23,11,09,12.90
2018,04,23,11,10,12.90
2018,04,23,11,11,13.00
2018,04,23,11,12,13.00
2018,04,23,11,13,12.90
2018,04,23,11,14,12.90
2018,04,23,11,15,12.90
2018,04,23,11,16,12.90
2018,04,23,11,17,12.90
2018,04,23,11,18,12.80
2018,04,23,11,19,12.80
2018,04,23,11,20,12.80
2018,04,23,11,21,12.80
2018,04,23,11,22,12.90
2018,04,23,11,23,13.00
2018,04,23,11,24,13.00
2018,04,23,11,25,13.00
2018,04,23,11,26,13.00
2018,04,23,11,27,13.00
2018,04,23,11,28,13.00
2018,04,23,11,29,13.10
2018,04,23,11,30,13.10
2018,04,23,11,31,13.20
2018,04,23,11,32,13.20
2018,04,23,11,33,13.30
2018,04,23,11,34,13.20
2018,04,23,11,35,13.20
2018,04,23,11,36,13.20
2018,04,23,11,37,13.20
2018,04,23,11,38,13.30
2018,04,23,11,39,13.30
2018,04,23,11,40,13.20
2018,04,23,11,41,13.20
2018,04,23,11,42,13.30
2018,04,23,11,43,13.30
2018,04,23,11,44,13.30
2018,04,23,11,45,13.40
2018,04,23,11,46,13.50
2018,04,23,11,47,13.60
2018,04,23,11,48,13.60
2018,04,23,11,49,13.60
2018,04,23,11,50,13.60
2018,04,23,11,51,13.50
2018,04,23,11,52,13.50
2018,04,23,11,53,13.40
2018,04,23,11,54,13.40
2018,04,23,11,55,13.30
2018,04,23,11,56,13.30
2018,04,23,11,57,13.30
2018,04,23,11,58,13.30
2018,04,23,11,59,13.40
2018,04,23,12,00,13.40
2018,04,23,12,01,13.50
2018,04,23,12,02,13.60
2018,04,23,12,03,13.70
2018,04,23,12,04,13.90
2018,04,23,12,05,14.00
2018,04,23,12,06,14.10
2018,04,23,12,07,14.20
2018,04,23,12,08,14.30
2018,04,23,12,09,14.30
2018,04,23,12,10,14.30
2018,04,23,12,11,14.30
2018,04,23,12,12,14.30
2018,04,23,12,13,14.30
2018,04,23,12,14,14.40
2018,04,23,12,15,14.40
2018,04,23,12,16,14.40
2018,04,23,12,17,14.30
2018,04,23,12,18,14.20
2018,04,23,12,19,14.20
2018,04,23,12,20,14.10
2018,04,23,12,21,14.10
2018,04,23,12,22,14.20
2018,04,23,12,23,14.20
2018,04,23,12,24,14.20
2018,04,23,12,25,14.20
2018,04,23,12,26,14.20
2018,04,23,12,27,14.20
2018,04,23,12,28,14.30
2018,04,23,12,29,14.40
2018,04,23,12,30,14.40
2018,04,23,12,31,14.50
2018,04,23,12,32,14.60
2018,04,23,12,33,14.60
2018,04,23,12,34,14.60
2018,04,23,12,35,14.40
2018,04,23,12,36,14.30
2018,04,23,12,37,14.20
2018,04,23,12,38,14.10
2018,04,23,12,39,14.10
2018,04,23,12,40,14.10
2018,04,23,12,41,14.00
2018,04,23,12,42,13.90
2018,04,23,12,43,13.80
2018,04,23,12,44,13.80
2018,04,23,12,45,13.80
2018,04,23,12,46,13.90
2018,04,23,12,47,14.00
2018,04,23,12,48,14.10
2018,04,23,12,49,14.20
2018,04,23,12,50,14.30
2018,04,23,12,51,14.50
2018,04,23,12,52,14.60
2018,04,23,12,53,14.60
2018,04,23,12,54,14.70
2018,04,23,12,55,14.80
2018,04,23,12,56,14.80
2018,04,23,12,57,14.90
2018,04,23,12,58,15.00
2018,04,23,12,59,15.00
2018,04,23,13,00,14.90
2018,04,23,13,01,15.00
2018,04,23,13,02,15.10
2018,04,23,13,03,15.20
2018,04,23,13,04,15.30
2018,04,23,13,05,15.40
2018,04,23,13,06,15.40
2018,04,23,13,07,15.50
2018,04,23,13,08,15.50
2018,04,23,13,09,15.50
2018,04,23,13,10,15.50
2018,04,23,13,11,15.40
2018,04,23,13,12,15.30
2018,04,23,13,13,15.30
2018,04,23,13,14,15.30
2018,04,23,13,15,15.30
2018,04,23,13,16,15.30
2018,04,23,13,17,15.20
2018,04,23,13,18,15.20
2018,04,23,13,19,15.10
2018,04,23,13,20,15.10
2018,04,23,13,21,15.00
2018,04,23,13,22,14.90
2018,04,23,13,23,15.00
2018,04,23,13,24,15.00
2018,04,23,13,25,15.10
2018,04,23,13,26,15.20
2018,04,23,13,27,15.20
2018,04,23,13,28,15.20
2018,04,23,13,29,15.20
2018,04,23,13,30,15.20
2018,04,23,13,31,15.20
2018,04,23,13,32,15.20
2018,04,23,13,33,15.20
2018,04,23,13,34,15.20
2018,04,23,13,35,15.20
2018,04,23,13,36,15.20
2018,04,23,13,37,15.20
2018,04,23,13,38,15.30
2018,04,23,13,39,15.30
2018,04,23,13,40,15.30
2018,04,23,13,41,15.30
2018,04,23,13,42,15.30
2018,04,23,13,43,15.30
2018,04,23,13,44,15.30
2018,04,23,13,45,15.40
2018,04,23,13,46,15.50
2018,04,23,13,47,15.50
2018,04,23,13,48,15.60
2018,04,23,13,49,15.60
2018,04,23,13,50,15.60
2018,04,23,13,51,15.50
2018,04,23,13,52,15.40
2018,04,23,13,53,15.30
2018,04,23,13,54,15.30
2018,04,23,13,55,15.30
2018,04,23,13,56,15.30
2018,04,23,13,57,15.40
2018,04,23,13,58,15.50
2018,04,23,13,59,15.60
2018,04,23,14,00,15.70
2018,04,23,14,01,15.80
2018,04,23,14,02,15.90
2018,04,23,14,03,16.00
2018,04,23,14,04,16.10
2018,04,23,14,05,16.10
2018,04,23,14,06,16.00
2018,04,23,14,07,15.90
2018,04,23,14,08,15.90
2018,04,23,14,09,16.00
2018,04,23,14,10,16.00
2018,04,23,14,11,16.10
2018,04,23,14,12,16.20
2018,04,23,14,13,16.10
2018,04,23,14,14,16.00
2018,04,23,14,15,15.90
2018,04,23,14,16,15.80
2018,04,23,14,17,15.80
2018,04,23,14,18,15.70
2018,04,23,14,19,15.70
2018,04,23,14,20,15.70
2018,04,23,14,21,15.70
2018,04,23,14,22,15.70
2018,04,23,14,23,15.80
2018,04,23,14,24,15.80
2018,04,23,14,25,15.80
2018,04,23,14,26,15.80
2018,04,23,14,27,15.80
2018,04,23,14,28,15.90
2018,04,23,14,29,15.90
2018,04,23,14,30,15.90
2018,04,23,14,31,15.90
2018,04,23,14,32,15.80
2018,04,23,14,33,15.80
2018,04,23,14,34,15.80
2018,04,23,14,35,15.80
2018,04,23,14,36,15.80
2018,04,23,14,37,15.80
2018,04,23,14,38,15.90
2018,04,23,14,39,15.90
2018,04,23,14,40,15.90
2018,04,23,14,41,15.90
2018,04,23,14,42,15.90
2018,04,23,14,43,15.90
2018,04,23,14,44,15.90
2018,04,23,14,45,15.90
2018,04,23,14,46,15.90
2018,04,23,14,47,15.90
2018,04,23,14,48,15.80
2018,04,23,14,49,15.80
2018,04,23,14,50,15.80
2018,04,23,14,51,15.80
2018,04,23,14,52,15.80
2018,04,23,14,53,15.80
2018,04,23,14,54,15.80
2018,04,23,14,55,15.90
2018,04,23,14,56,15.90
2018,04,23,14,57,16.00
2018,04,23,14,58,16.10
2018,04,23,14,59,16.30
2018,04,23,15,00,16.40
2018,04,23,15,01,16.40
2018,04,23,15,02,16.50
2018,04,23,15,03,16.50
2018,04,23,15,04,16.50
2018,04,23,15,05,16.40
2018,04,23,15,06,16.40
2018,04,23,15,07,16.40
2018,04,23,15,08,16.30
2018,04,23,15,09,16.20
2018,04,23,15,10,16.20
2018,04,23,15,11,16.20
2018,04,23,15,12,16.20
2018,04,23,15,13,16.20
2018,04,23,15,14,16.10
2018,04,23,15,15,16.10
2018,04,23,15,16,16.10
2018,04,23,15,17,16.10
2018,04,23,15,18,16.10
2018,04,23,15,19,16.10
2018,04,23,15,20,16.20
2018,04,23,15,21,16.20
2018,04,23,15,22,16.20
2018,04,23,15,23,16.20
2018,04,23,15,24,16.20
2018,04,23,15,25,16.20
2018,04,23,15,26,16.20
2018,04,23,15,27,16.20
2018,04,23,15,28,16.10
2018,04,23,15,29,16.10
2018,04,23,15,30,16.20
2018,04,23,15,31,16.20
2018,04,23,15,32,16.10
2018,04,23,15,33,16.10
2018,04,23,15,34,16.00
2018,04,23,15,35,16.10
2018,04,23,15,36,16.10
2018,04,23,15,37,16.20
2018,04,23,15,38,16.30
2018,04,23,15,39,16.30
2018,04,23,15,40,16.40
2018,04,23,15,41,16.40
2018,04,23,15,42,16.40
2018,04,23,15,43,16.40
2018,04,23,15,44,16.50
2018,04,23,15,45,16.60
2018,04,23,15,46,16.60
2018,04,23,15,47,16.50
2018,04,23,15,48,16.50
2018,04,23,15,49,16.40
2018,04,23,15,50,16.50
2018,04,23,15,51,16.50
2018,04,23,15,52,16.40
2018,04,23,15,53,16.40
2018,04,23,15,54,16.40
2018,04,23,15,55,16.30
2018,04,23,15,56,16.30
2018,04,23,15,57,16.40
2018,04,23,15,58,16.60
2018,04,23,15,59,16.70
2018,04,23,16,00,16.70
2018,04,23,16,01,16.70
2018,04,23,16,02,16.60
2018,04,23,16,03,16.60
2018,04,23,16,04,16.60
2018,04,23,16,05,16.60
2018,04,23,16,06,16.60
2018,04,23,16,07,16.60
2018,04,23,16,08,16.60
2018,04,23,16,09,16.60
2018,04,23,16,10,16.70
2018,04,23,16,11,16.80
2018,04,23,16,12,16.70
2018,04,23,16,13,16.70
2018,04,23,16,14,16.70
2018,04,23,16,15,16.70
2018,04,23,16,16,16.70
2018,04,23,16,17,16.70
2018,04,23,16,18,16.80
2018,04,23,16,19,16.80
2018,04,23,16,20,16.80
2018,04,23,16,21,16.80
2018,04,23,16,22,16.70
2018,04,23,16,23,16.70
2018,04,23,16,24,16.70
2018,04,23,16,25,16.80
2018,04,23,16,26,16.80
2018,04,23,16,27,16.80
2018,04,23,16,28,16.90
2018,04,23,16,29,16.90
2018,04,23,16,30,17.00
2018,04,23,16,31,17.10
2018,04,23,16,32,17.10
2018,04,23,16,33,17.10
2018,04,23,16,34,17.20
2018,04,23,16,35,17.30
2018,04,23,16,36,17.30
2018,04,23,16,37,17.30
2018,04,23,16,38,17.20
2018,04,23,16,39,17.20
2018,04,23,16,40,17.30
2018,04,23,16,41,17.40
2018,04,23,16,42,17.50
2018,04,23,16,43,17.60
2018,04,23,16,44,17.60
2018,04,23,16,45,17.60
2018,04,23,16,46,17.60
2018,04,23,16,47,17.70
2018,04,23,16,48,17.70
2018,04,23,16,49,17.60
2018,04,23,16,50,17.50
2018,04,23,16,51,17.50
2018,04,23,16,52,17.50
2018,04,23,16,53,17.50
2018,04,23,16,54,17.50
2018,04,23,16,55,17.50
2018,04,23,16,56,17.50
2018,04,23,16,57,17.50
2018,04,23,16,58,17.60
2018,04,23,16,59,17.70
2018,04,23,17,00,17.70
2018,04,23,17,01,17.80
2018,04,23,17,02,17.80
2018,04,23,17,03,17.80
2018,04,23,17,04,17.60
2018,04,23,17,05,17.60
2018,04,23,17,06,17.50
2018,04,23,17,07,17.50
2018,04,23,17,08,17.60
2018,04,23,17,09,17.60
2018,04,23,17,10,17.60
2018,04,23,17,11,17.70
2018,04,23,17,12,17.70
2018,04,23,17,13,17.80
2018,04,23,17,14,17.90
2018,04,23,17,15,18.00
2018,04,23,17,16,18.00
2018,04,23,17,17,17.90
2018,04,23,17,18,17.80
2018,04,23,17,19,17.70
2018,04,23,17,20,17.70
2018,04,23,17,21,17.70
2018,04,23,17,22,17.70
2018,04,23,17,23,17.80
2018,04,23,17,24,17.70
2018,04,23,17,25,17.80
2018,04,23,17,26,17.80
2018,04,23,17,27,17.90
2018,04,23,17,28,17.90
2018,04,23,17,29,17.90
2018,04,23,17,30,17.90
2018,04,23,17,31,17.90
2018,04,23,17,32,17.90
2018,04,23,17,33,17.90
2018,04,23,17,34,17.90
2018,04,23,17,35,17.90
2018,04,23,17,36,17.90
2018,04,23,17,37,17.90
2018,04,23,17,38,17.90
2018,04,23,17,39,17.90
2018,04,23,17,40,17.90